North Plainfield Burying Ground, New Jersey, United States
Lat: 40.64N, Lon: 74.46W
Wx Zone: NJZ010
Local Info
Past Weather Observations for Today

NOTE: This archive is for the closest National Weather Service station to North Plainfield Burying Ground. Information may differ from the station used for current weather conditions.

Click here for Long-term Archive

Time Weather Temperature Dewpoint Humidity Pressure Winds Precip Visibility
17:53
Clear
64°F / 18°C 57°F / 14°C 78% 29.92 in
(1013 mb)
E 4.6 mph
(E 7 kph)
- 10SM
16:53
Mostly Cloudy
68°F / 20°C 57°F / 14°C 69% 29.92 in
(1013 mb)
Variable 3.5 mph
(Variable 6 kph)
- 10SM
15:53
Overcast
70°F / 21°C 57°F / 14°C 64% 29.92 in
(1013 mb)
Variable 6.9 mph
(Variable 11 kph)
- 10SM
14:53
Overcast
72°F / 22°C 57°F / 14°C 61% 29.92 in
(1013 mb)
Variable 5.8 mph
(Variable 9 kph)
- 10SM
13:53
Clear
75°F / 24°C 57°F / 14°C 54% 29.92 in
(1013 mb)
SE 6.9 mph
(SE 11 kph)
- 10SM
12:53
Partly Cloudy
79°F / 26°C 50°F / 10°C 37% 29.92 in
(1013 mb)
Variable 3.5 mph
(Variable 6 kph)
- 10SM
11:53
Clear
79°F / 26°C 50°F / 10°C 37% 29.92 in
(1013 mb)
Variable 5.8 mph
(Variable 9 kph)
- 10SM
10:53
Clear
75°F / 24°C 52°F / 11°C 44% 29.92 in
(1013 mb)
Calm - 10SM
09:53
Clear
73°F / 23°C 54°F / 12°C 50% 29.95 in
(1014 mb)
Calm - 10SM
08:53
Clear
68°F / 20°C 57°F / 14°C 69% 29.95 in
(1014 mb)
Calm - 10SM
07:53
Clear
Fog And Mist
63°F / 17°C 57°F / 14°C 83% 29.95 in
(1014 mb)
Calm - 6SM
06:53
Clear
Fog And Mist
57°F / 14°C 55°F / 13°C 94% 29.95 in
(1014 mb)
Calm - 5SM
06:05
Partly Cloudy
Fog And Mist
55°F / 13°C 54°F / 12°C 94% 29.95 in
(1014 mb)
Calm - 4SM
05:53
Partly Cloudy
Fog And Mist
55°F / 13°C 54°F / 12°C 94% 29.95 in
(1014 mb)
Calm - 1 1/4SM
05:49
Clear
Fog And Mist
55°F / 13°C 54°F / 12°C 94% 29.95 in
(1014 mb)
Calm - 1 3/4SM
04:53
Partly Cloudy
55°F / 13°C 54°F / 12°C 94% 29.92 in
(1013 mb)
Calm - 7SM
04:26
Partly Cloudy
Fog And Mist
57°F / 14°C 55°F / 13°C 94% 29.92 in
(1013 mb)
Calm - 5SM
04:18
Partly Cloudy
Fog And Mist
57°F / 14°C 55°F / 13°C 94% 29.92 in
(1013 mb)
Calm - 2 1/2SM
04:06
Mostly Cloudy
Fog And Mist
57°F / 14°C 55°F / 13°C 94% 29.92 in
(1013 mb)
Calm - 2SM
03:53
Obscured
Fog And Mist
57°F / 14°C 55°F / 13°C 94% 29.92 in
(1013 mb)
NW 3.5 mph
(NW 6 kph)
- 3/4SM
03:44
Mostly Cloudy
Fog And Mist
57°F / 14°C 55°F / 13°C 94% 29.92 in
(1013 mb)
NW 3.5 mph
(NW 6 kph)
- 1 1/2SM
03:38
Partly Cloudy
Fog And Mist
57°F / 14°C 55°F / 13°C 94% 29.92 in
(1013 mb)
Calm - 2 1/2SM
02:53
Clear
Fog And Mist
59°F / 15°C 55°F / 13°C 88% 29.92 in
(1013 mb)
NNW 3.5 mph
(NNW 6 kph)
- 5SM
02:35
Partly Cloudy
Fog And Mist
61°F / 16°C 57°F / 14°C 88% 29.92 in
(1013 mb)
Calm - 4SM
02:26
Partly Cloudy
Fog And Mist
61°F / 16°C 57°F / 14°C 88% 29.92 in
(1013 mb)
Calm - 2 1/2SM
02:18
Partly Cloudy
Fog And Mist
61°F / 16°C 57°F / 14°C 88% 29.92 in
(1013 mb)
Calm - 3SM
02:11
Clear
Fog And Mist
61°F / 16°C 57°F / 14°C 88% 29.92 in
(1013 mb)
Calm - 2 1/2SM
01:53
Partly Cloudy
Fog And Mist
61°F / 16°C 57°F / 14°C 88% 29.92 in
(1013 mb)
Calm - 6SM
00:53
Clear
63°F / 17°C 59°F / 15°C 88% 29.92 in
(1013 mb)
Calm - 7SM
Time Weather Temperature Dewpoint Humidity Pressure Winds Precip Visibility


Weather for websites

WeatherForYou.com, LLC is not responsible for any damages or problems caused by this service. Current weather conditions are obtained from the closest station including government and personal stations which may have varying degrees of accuracy. Weather forecasts are derived from the NOAA NDFD. Like all things, this site belongs to Jesus Christ... He just trusts me to maintain it. If you have any questions or comments email webmaster@weatherforyou.com

Copyright © 2014, WeatherForYou.com LLC. All rights reserved.